• în Republica Moldova
  • Lista ţărilor
  • Pe 7 zile
  • Temperatura apei
  • Hartă satelitară
  • Meteo pe hartă
  • Widget-uri
  • user-avatar
    Intrare

    Meteo pe oră la Ali Bayramli

    Astăzi, 26 Martie, Duminică

    Timp Temperatura Precipitaţii Vânt Presiune Umiditate
    00:00 +5°C° 0 mm 3 m/s 760 mmHg 91%
    01:00 +6°C° 0 mm 2 m/s 760 mmHg 92%
    02:00 +6°C° 0 mm 2 m/s 760 mmHg 93%
    03:00 +6°C° 0 mm 2 m/s 760 mmHg 94%
    04:00 +6°C° 0 mm 2 m/s 760 mmHg 94%
    05:00 +5°C° 0 mm 2 m/s 760 mmHg 94%
    06:00 +5°C° 0 mm 2 m/s 760 mmHg 95%
    07:00 +7°C° 0 mm 2 m/s 760 mmHg 86%
    08:00 +9°C° 0 mm 2 m/s 760 mmHg 77%
    09:00 +13°C° 0 mm 2 m/s 760 mmHg 66%
    10:00 +13°C° 0 mm 3 m/s 760 mmHg 60%
    11:00 +14°C° 0 mm 3 m/s 759 mmHg 54%
    12:00 +16°C° 0 mm 3 m/s 759 mmHg 48%
    13:00 +17°C° 0 mm 4 m/s 759 mmHg 47%
    14:00 +17°C° 0 mm 4 m/s 758 mmHg 46%
    15:00 +18°C° 0 mm 4 m/s 758 mmHg 45%
    16:00 +15°C° 0 mm 4 m/s 758 mmHg 51%
    17:00 +14°C° 0 mm 4 m/s 758 mmHg 57%
    18:00 +12°C° 0 mm 4 m/s 758 mmHg 64%
    19:00 +12°C° 0 mm 4 m/s 758 mmHg 70%
    20:00 +11°C° 0 mm 4 m/s 758 mmHg 76%
    21:00 +10°C° 0 mm 4 m/s 758 mmHg 81%
    22:00 +9°C° 0 mm 3 m/s 758 mmHg 82%
    23:00 +9°C° 0 mm 3 m/s 758 mmHg 82%

    Mâine, 27 Martie, Luni

    Timp Temperatura Precipitaţii Vânt Presiune Umiditate
    00:00 +9°C° 0 mm 3 m/s 758 mmHg 82%
    01:00 +9°C° 0 mm 3 m/s 758 mmHg 78%
    02:00 +9°C° 0 mm 3 m/s 757 mmHg 75%
    03:00 +8°C° 0 mm 4 m/s 757 mmHg 71%
    04:00 +8°C° 0 mm 4 m/s 757 mmHg 65%
    05:00 +8°C° 0 mm 4 m/s 757 mmHg 60%
    06:00 +8°C° 0 mm 5 m/s 757 mmHg 55%
    07:00 +10°C° 0 mm 5 m/s 757 mmHg 49%
    08:00 +14°C° 0 mm 6 m/s 757 mmHg 44%
    09:00 +16°C° 0 mm 7 m/s 757 mmHg 38%
    10:00 +18°C° 0 mm 7 m/s 756 mmHg 35%
    11:00 +20°C° 0 mm 7 m/s 756 mmHg 32%
    12:00 +22°C° 0 mm 7 m/s 755 mmHg 29%
    13:00 +22°C° 0 mm 7 m/s 755 mmHg 29%
    14:00 +23°C° 0 mm 6 m/s 754 mmHg 29%
    15:00 +23°C° 0 mm 6 m/s 754 mmHg 29%
    16:00 +21°C° 0 mm 5 m/s 754 mmHg 35%
    17:00 +19°C° 0 mm 4 m/s 754 mmHg 42%
    18:00 +17°C° 0 mm 3 m/s 754 mmHg 49%
    19:00 +16°C° 0 mm 2 m/s 755 mmHg 52%
    20:00 +15°C° 0 mm 2 m/s 755 mmHg 55%
    21:00 +14°C° 0 mm 1 m/s 755 mmHg 58%
    22:00 +13°C° 0 mm 1 m/s 755 mmHg 58%
    23:00 +13°C° 0 mm 2 m/s 755 mmHg 58%

    Poimâine, 28 Martie, Marţi

    Timp Temperatura Precipitaţii Vânt Presiune Umiditate
    00:00 +12°C° 0 mm 2 m/s 755 mmHg 58%
    01:00 +12°C° 0 mm 2 m/s 755 mmHg 60%
    02:00 +10°C° 0 mm 2 m/s 755 mmHg 62%
    03:00 +10°C° 0 mm 2 m/s 756 mmHg 64%
    04:00 +9°C° 0 mm 3 m/s 756 mmHg 67%
    05:00 +8°C° 0 mm 4 m/s 757 mmHg 69%
    06:00 +8°C° 0 mm 5 m/s 758 mmHg 71%
    07:00 +9°C° 0 mm 5 m/s 759 mmHg 67%
    08:00 +10°C° 0 mm 6 m/s 760 mmHg 64%
    09:00 +13°C° 0 mm 6 m/s 761 mmHg 60%
    10:00 +13°C° 0 mm 5 m/s 761 mmHg 56%
    11:00 +14°C° 0 mm 5 m/s 762 mmHg 51%
    12:00 +15°C° 0 mm 4 m/s 762 mmHg 47%
    13:00 +15°C° 0 mm 4 m/s 762 mmHg 47%
    14:00 +14°C° 0 mm 4 m/s 761 mmHg 47%
    15:00 +14°C° 0 mm 4 m/s 761 mmHg 47%
    16:00 +13°C° 0 mm 4 m/s 761 mmHg 50%
    17:00 +12°C° 0 mm 4 m/s 761 mmHg 53%
    18:00 +11°C° 0 mm 4 m/s 761 mmHg 56%
    19:00 +10°C° 0 mm 4 m/s 761 mmHg 62%
    20:00 +9°C° 0 mm 3 m/s 761 mmHg 67%
    21:00 +8°C° 0 mm 3 m/s 762 mmHg 73%
    22:00 +8°C° 0 mm 3 m/s 761 mmHg 76%
    23:00 +8°C° 0 mm 3 m/s 761 mmHg 79%

    29 Martie, Miercuri

    Timp Temperatura Precipitaţii Vânt Presiune Umiditate
    00:00 +7°C° 0 mm 3 m/s 760 mmHg 82%
    01:00 +7°C° 0 mm 3 m/s 760 mmHg 81%
    02:00 +6°C° 0 mm 4 m/s 759 mmHg 81%
    03:00 +6°C° 0 mm 4 m/s 759 mmHg 80%
    04:00 +6°C° 0 mm 5 m/s 759 mmHg 74%
    05:00 +6°C° 0 mm 5 m/s 759 mmHg 67%
    06:00 +6°C° 0 mm 5 m/s 759 mmHg 60%
    07:00 +8°C° 0 mm 6 m/s 760 mmHg 50%
    08:00 +10°C° 0 mm 6 m/s 760 mmHg 40%
    09:00 +14°C° 0 mm 7 m/s 760 mmHg 30%
    10:00 +15°C° 0 mm 7 m/s 760 mmHg 28%
    11:00 +17°C° 0 mm 6 m/s 760 mmHg 27%
    12:00 +20°C° 0 mm 6 m/s 760 mmHg 26%
    13:00 +20°C° 0 mm 6 m/s 760 mmHg 28%
    14:00 +19°C° 0 mm 6 m/s 760 mmHg 30%
    15:00 +19°C° 0 mm 6 m/s 760 mmHg 32%
    16:00 +16°C° 0 mm 6 m/s 761 mmHg 41%
    17:00 +14°C° 0 mm 6 m/s 762 mmHg 49%
    18:00 +11°C° 0 mm 6 m/s 762 mmHg 58%
    19:00 +10°C° 0 mm 5 m/s 763 mmHg 63%
    20:00 +9°C° 0 mm 5 m/s 765 mmHg 67%
    21:00 +8°C° 0 mm 4 m/s 766 mmHg 71%
    22:00 +8°C° 0 mm 4 m/s 766 mmHg 74%
    23:00 +8°C° 0 mm 4 m/s 767 mmHg 76%

    30 Martie, Joi

    Timp Temperatura Precipitaţii Vânt Presiune Umiditate
    00:00 +8°C° 0 mm 3 m/s 767 mmHg 79%
    01:00 +8°C° 0 mm 3 m/s 767 mmHg 81%
    02:00 +8°C° 0 mm 3 m/s 767 mmHg 83%
    03:00 +7°C° 0 mm 3 m/s 767 mmHg 85%
    04:00 +7°C° 0 mm 3 m/s 768 mmHg 85%
    05:00 +7°C° 0 mm 3 m/s 768 mmHg 86%
    06:00 +7°C° 0 mm 3 m/s 768 mmHg 87%
    07:00 +8°C° 0 mm 3 m/s 768 mmHg 78%
    08:00 +10°C° 0 mm 4 m/s 768 mmHg 69%
    09:00 +10°C° 0 mm 5 m/s 768 mmHg 60%
    10:00 +12°C° 0 mm 4 m/s 768 mmHg 60%
    11:00 +12°C° 0 mm 4 m/s 767 mmHg 60%
    12:00 +12°C° 0 mm 4 m/s 767 mmHg 60%
    13:00 +13°C° 0 mm 4 m/s 766 mmHg 60%
    14:00 +13°C° 0 mm 4 m/s 765 mmHg 59%
    15:00 +13°C° 0 mm 4 m/s 764 mmHg 58%
    16:00 +13°C° 0 mm 3 m/s 764 mmHg 62%
    17:00 +12°C° 0 mm 3 m/s 764 mmHg 66%
    18:00 +11°C° 0 mm 3 m/s 763 mmHg 70%
    19:00 +10°C° 0 mm 3 m/s 763 mmHg 74%
    20:00 +9°C° 0 mm 2 m/s 763 mmHg 78%
    21:00 +9°C° 0 mm 2 m/s 763 mmHg 81%
    22:00 +8°C° 0 mm 2 m/s 762 mmHg 83%
    23:00 +8°C° 0 mm 2 m/s 762 mmHg 84%

    31 Martie, Vineri

    Timp Temperatura Precipitaţii Vânt Presiune Umiditate
    00:00 +8°C° 0 mm 2 m/s 761 mmHg 86%
    01:00 +8°C° 0 mm 3 m/s 760 mmHg 86%
    02:00 +7°C° 0 mm 3 m/s 760 mmHg 87%
    03:00 +7°C° 0 mm 3 m/s 759 mmHg 87%
    04:00 +7°C° 0 mm 3 m/s 759 mmHg 86%
    05:00 +7°C° 0 mm 3 m/s 759 mmHg 85%
    06:00 +7°C° 0 mm 3 m/s 759 mmHg 84%
    07:00 +9°C° 0 mm 3 m/s 759 mmHg 74%
    08:00 +11°C° 0 mm 4 m/s 759 mmHg 65%
    09:00 +13°C° 0 mm 4 m/s 759 mmHg 55%
    10:00 +16°C° 0 mm 3 m/s 759 mmHg 49%
    11:00 +18°C° 0 mm 3 m/s 759 mmHg 42%
    12:00 +19°C° 0 mm 2 m/s 758 mmHg 36%
    13:00 +20°C° 0 mm 3 m/s 758 mmHg 35%
    14:00 +20°C° 0 mm 3 m/s 758 mmHg 35%
    15:00 +21°C° 0 mm 4 m/s 758 mmHg 35%
    16:00 +19°C° 0 mm 5 m/s 759 mmHg 39%
    17:00 +16°C° 0 mm 6 m/s 759 mmHg 44%
    18:00 +15°C° 0 mm 7 m/s 760 mmHg 48%
    19:00 +14°C° 0 mm 7 m/s 761 mmHg 49%
    20:00 +12°C° 0 mm 7 m/s 762 mmHg 50%
    21:00 +11°C° 0 mm 8 m/s 762 mmHg 51%
    22:00 +11°C° 0 mm 8 m/s 763 mmHg 55%
    23:00 +10°C° 0 mm 9 m/s 763 mmHg 59%
    Arată mai mult